TimeMDT,TemperatureF,Dew PointF,Humidity,Sea Level PressureIn,VisibilityMPH,Wind Direction,Wind SpeedMPH,Gust SpeedMPH,PrecipitationIn,Events,Conditions,WindDirDegrees,DateUTC
12:53 AM,57.9,26.1,30,29.97,7.0,Calm,Calm,-,N/A,,Clear,0,2012-09-19 06:53:00
1:53 AM,55.0,26.1,33,29.98,8.0,Calm,Calm,-,N/A,,Clear,0,2012-09-19 07:53:00
2:53 AM,52.0,27.0,38,29.98,8.0,SE,3.5,-,N/A,,Clear,130,2012-09-19 08:53:00
3:53 AM,51.1,26.1,38,29.99,8.0,ENE,4.6,-,N/A,,Clear,70,2012-09-19 09:53:00
4:53 AM,55.9,24.1,29,29.99,7.0,Variable,5.8,-,N/A,,Clear,0,2012-09-19 10:53:00
5:53 AM,48.9,26.1,41,30.05,7.0,Calm,Calm,-,N/A,,Clear,0,2012-09-19 11:53:00
6:53 AM,55.9,24.1,29,30.05,7.0,West,8.1,-,N/A,,Clear,260,2012-09-19 12:53:00
8:53 AM,60.1,30.9,33,30.11,6.0,Calm,Calm,-,N/A,,Haze,0,2012-09-19 14:53:00
9:53 AM,64.0,35.1,34,30.10,6.0,Calm,Calm,-,N/A,,Haze,0,2012-09-19 15:53:00
11:53 AM,73.0,24.1,16,30.07,10.0,ESE,6.9,-,N/A,,Clear,110,2012-09-19 17:53:00
12:53 PM,75.0,25.0,16,30.05,10.0,Variable,5.8,-,N/A,,Clear,0,2012-09-19 18:53:00
1:53 PM,75.9,23.0,14,30.02,10.0,East,6.9,-,N/A,,Clear,90,2012-09-19 19:53:00
2:53 PM,77.0,24.1,14,30.00,9.0,NE,12.7,19.6,N/A,,Clear,50,2012-09-19 20:53:00
3:53 PM,77.0,25.0,15,29.98,8.0,North,9.2,-,N/A,,Clear,10,2012-09-19 21:53:00
4:53 PM,77.0,25.0,15,29.96,7.0,NNE,6.9,-,N/A,,Clear,20,2012-09-19 22:53:00
5:53 PM,75.0,27.0,17,29.98,7.0,NNE,5.8,-,N/A,,Clear,20,2012-09-19 23:53:00
6:53 PM,72.0,27.0,19,29.98,7.0,NNW,3.5,-,N/A,,Clear,340,2012-09-20 00:53:00
7:53 PM,66.9,28.0,23,30.03,8.0,West,4.6,-,N/A,,Clear,270,2012-09-20 01:53:00
8:53 PM,63.0,26.1,25,30.03,9.0,WSW,11.5,-,N/A,,Clear,240,2012-09-20 02:53:00
9:53 PM,62.1,25.0,24,30.03,9.0,WSW,10.4,-,N/A,,Clear,250,2012-09-20 03:53:00
10:53 PM,57.0,27.0,32,30.04,9.0,SSE,3.5,-,N/A,,Clear,160,2012-09-20 04:53:00
11:53 PM,57.9,25.0,28,30.03,8.0,WSW,8.1,-,N/A,,Clear,250,2012-09-20 05:53:00